Amritsar, India

12:35 AM IST on June 27, 2017 (GMT +0530)
Amritsar

Weather History for VIAR - December, 2013

Change the Weather History Date:

Tuesday, December 3, 2013

  Actual Average Record
Temperature  
Mean Temperature 62 °F -  
Max Temperature 76 °F 69 °F 90 °F (2014)
Min Temperature 48 °F 43 °F 37 °F (2005)
Degree Days  
Heating Degree Days 3    
Growing Degree Days 12 (Base 50)    
Moisture  
Dew Point 55 °F    
Average Humidity 85    
Maximum Humidity 100    
Minimum Humidity 39    
Precipitation  
Precipitation 0.00 in - - ()
Sea Level Pressure  
Sea Level Pressure 30.04 in    
Wind  
Wind Speed 1 mph ()    
Max Wind Speed 6 mph    
Max Gust Speed -    
Visibility 1.1 miles    
Events Fog    
Averages and records for this station are not official NWS values.
T = Trace of Precipitation, MM = Missing Value Source: Averaged Metar Reports

Daily Weather History Graph

Daily Weather History Graph

Search for Another Location

Airport or City:

Trip Planner

Search our weather history database for the weather conditions in past years. The results will help you decide how hot, cold, wet, or windy it might be!

Date:

Astronomy

Dec. 03, 2013 Rise Set
Actual Time 7:13 AM IST 5:26 PM IST
Civil Twilight 6:47 AM IST 5:53 PM IST
Nautical Twilight 6:17 AM IST 6:23 PM IST
Astronomical Twilight 5:47 AM IST 6:52 PM IST
Moon 7:15 AM IST (12/3) 6:00 PM IST (12/3)
Length of Visible Light 11h 06m
Length of Day
10h 12m
New Moon, 0% of the Moon is Illuminated
Dec 3
New Moon
Dec 9
First Quarter
Dec 17
Full
Dec 25
Last Quarter
Jan 1
New

Hourly Weather History & Observations

Time (IST) Temp. Dew Point Humidity Pressure Visibility Wind Dir Wind Speed Gust Speed Precip Events Conditions
12:00 AM 55.4 °F 55.4 °F 100% 30.01 in 0.7 mi Calm Calm - N/A   Scattered Clouds
12:30 AM 55.4 °F 55.4 °F 100% 29.98 in 0.7 mi Calm Calm - N/A   Scattered Clouds
1:00 AM 55.4 °F 55.4 °F 100% 29.98 in 0.7 mi Calm Calm - N/A   Scattered Clouds
1:30 AM 55.4 °F 55.4 °F 100% 29.98 in 0.7 mi Calm Calm - N/A   Scattered Clouds
2:00 AM 53.6 °F 53.6 °F 100% 29.98 in 0.7 mi Calm Calm - N/A   Scattered Clouds
2:30 AM 53.6 °F 53.6 °F 100% 30.01 in 0.7 mi Calm Calm - N/A   Scattered Clouds
3:00 AM 51.8 °F 51.8 °F 100% 30.01 in 0.7 mi Calm Calm - N/A   Scattered Clouds
3:30 AM 51.8 °F 51.8 °F 100% 29.98 in 0.7 mi Calm Calm - N/A   Scattered Clouds
4:30 AM 50.0 °F 50.0 °F 100% 29.98 in 0.4 mi Calm Calm - N/A Fog Shallow Fog
5:00 AM 51.8 °F 51.8 °F 100% 29.98 in 0.4 mi Calm Calm - N/A Fog Shallow Fog
5:30 AM 50 °F 50 °F 100% 30.01 in 0 mi Calm Calm - - Fog Partial Fog
5:30 AM 50.0 °F 50.0 °F 100% 30.01 in 0.3 mi Calm Calm - N/A Fog Fog
6:00 AM 50.0 °F 50.0 °F 100% 30.01 in 0.3 mi Variable 2.3 mph - N/A Fog Fog
6:30 AM 51.8 °F 51.8 °F 100% 30.01 in 0.3 mi Variable 4.6 mph - N/A Fog Fog
7:00 AM 50.0 °F 50.0 °F 100% 30.04 in 0.3 mi Calm Calm - N/A Fog Fog
7:30 AM 50.0 °F 50.0 °F 100% 30.04 in 0.3 mi Calm Calm - N/A Fog Fog
8:00 AM 50.0 °F 50.0 °F 100% 30.06 in 0.4 mi Calm Calm - N/A Fog Fog
8:30 AM 51 °F 51 °F 100% 30.09 in 0 mi Calm Calm - - Fog Partial Fog
8:30 AM 51.8 °F 51.8 °F 100% 30.06 in 0.5 mi Calm Calm - N/A Fog Fog
9:00 AM 55.4 °F 55.4 °F 100% 30.06 in 0.6 mi ENE 4.6 mph - N/A   Mist
9:30 AM 59.0 °F 59.0 °F 100% 30.09 in 0.9 mi East 3.5 mph - N/A   Mist
10:00 AM 60.8 °F 60.8 °F 100% 30.09 in 1.1 mi Calm Calm - N/A   Mist
10:30 AM 64.4 °F 60.8 °F 88% 30.09 in 1.1 mi Calm Calm - N/A   Mist
11:00 AM 68.0 °F 59.0 °F 73% 30.09 in 1.2 mi Calm Calm - N/A   Haze
11:30 AM 72 °F 58 °F 52% 30.08 in 1 mi Calm Calm - -   Haze
11:30 AM 71.6 °F 59.0 °F 64% 30.09 in 1.6 mi Calm Calm - N/A   Haze
12:30 PM 73.4 °F 57.2 °F 57% 30.06 in 1.9 mi Variable 3.5 mph - N/A   Haze
1:00 PM 73.4 °F 57.2 °F 57% 30.06 in 2.2 mi Variable 3.5 mph - N/A   Haze
1:30 PM 73.4 °F 55.4 °F 53% 30.06 in 2.2 mi North 4.6 mph - N/A   Haze
2:00 PM 75.2 °F 55.4 °F 50% 30.04 in 2.2 mi Variable 2.3 mph - N/A   Haze
2:30 PM 76 °F 56 °F 39% 30.01 in 1 mi 2.3 mph - -   Haze
2:30 PM 75.2 °F 55.4 °F 50% 30.04 in 2.2 mi Variable 2.3 mph - N/A   Haze
3:00 PM 75.2 °F 55.4 °F 50% 30.04 in 2.2 mi Variable 3.5 mph - N/A   Haze
3:30 PM 75.2 °F 55.4 °F 50% 30.04 in 2.2 mi Variable 3.5 mph - N/A   Haze
4:00 PM 73.4 °F 55.4 °F 53% 30.04 in 2.2 mi Variable 3.5 mph - N/A   Haze
4:30 PM 71.6 °F 55.4 °F 57% 30.04 in 2.2 mi North 5.8 mph - N/A   Haze
5:00 PM 69.8 °F 57.2 °F 64% 30.04 in 2.2 mi Variable 5.8 mph - N/A   Haze
5:30 PM 69 °F 57 °F 57% 30.01 in 1 mi North 4.6 mph - -   Haze
5:30 PM 69.8 °F 57.2 °F 64% 30.04 in 1.6 mi North 4.6 mph - N/A   Haze
6:00 PM 69.8 °F 57.2 °F 64% 30.04 in 1.6 mi Variable 3.5 mph - N/A   Haze
6:30 PM 64.4 °F 57.2 °F 77% 30.04 in 1.6 mi Calm Calm - N/A   Haze
7:00 PM 60.8 °F 59.0 °F 94% 30.06 in 1.6 mi Variable 1.2 mph - N/A   Mist
7:30 PM 60.8 °F 59.0 °F 94% 30.06 in 1.2 mi Calm Calm - N/A   Mist
8:00 PM 59.0 °F 59.0 °F 100% 30.06 in 1.2 mi Calm Calm - N/A   Mist
8:30 PM 57 °F 57 °F 100% 30.07 in 1 mi Calm Calm - -   Mist
8:30 PM 57.2 °F 57.2 °F 100% 30.06 in 1.1 mi Calm Calm - N/A   Mist
9:00 PM 57.2 °F 57.2 °F 100% 30.06 in 1.1 mi Calm Calm - N/A   Mist
9:30 PM 55.4 °F 55.4 °F 100% 30.06 in 1.1 mi Calm Calm - N/A   Mist
10:00 PM 55.4 °F 55.4 °F 100% 30.09 in 1.1 mi Calm Calm - N/A   Mist
10:30 PM 55.4 °F 55.4 °F 100% 30.09 in 1.1 mi Calm Calm - N/A   Mist
11:30 PM 53 °F 53 °F 99% 30.10 in 1 mi Calm Calm - -   Mist
11:30 PM 53.6 °F 53.6 °F 100% 30.09 in 1.1 mi Calm Calm - N/A   Mist